Worthington, MN

1:44 AM CDT on August 22, 2017 (GMT -0500)
Worthington Municipal

Weather History for KOTG - February, 2012

Change the Weather History Date:

Sunday, February 12, 2012

  Actual Average Record
Temperature  
Mean Temperature 12 °F -  
Max Temperature 26 °F 27 °F 58 °F (1977)
Min Temperature 1 °F 12 °F -27 °F (1988)
Degree Days  
Heating Degree Days 52    
Moisture  
Dew Point -4 °F    
Average Humidity 58    
Maximum Humidity 72    
Minimum Humidity 36    
Precipitation  
Precipitation 0.00 in - - ()
Sea Level Pressure  
Sea Level Pressure 30.39 in    
Wind  
Wind Speed 9 mph (SW)    
Max Wind Speed 20 mph    
Max Gust Speed 23 mph    
Visibility 10 miles    
Events      
Averages and records for this station are not official NWS values.
T = Trace of Precipitation, MM = Missing Value Source: NWS Daily Summary

Daily Weather History Graph

Daily Weather History Graph

Search for Another Location

Airport or City:

Trip Planner

Search our weather history database for the weather conditions in past years. The results will help you decide how hot, cold, wet, or windy it might be!

Date:

Astronomy

Feb. 12, 2012 Rise Set
Actual Time 7:25 AM CST 5:47 PM CST
Civil Twilight 6:56 AM CST 6:17 PM CST
Nautical Twilight 6:22 AM CST 6:51 PM CST
Astronomical Twilight 5:49 AM CST 7:24 PM CST
Moon No Moon Rise 9:31 AM CST (2/12)
Length of Visible Light 11h 21m
Length of Day
10h 22m
Waning Gibbous, 72% of the Moon is Illuminated
Feb 12
Waning Gibbous
Feb 14
Last Quarter
Feb 21
New
Feb 29
First Quarter
Mar 8
Full

Hourly Weather History & Observations

Time (CST) Temp. Windchill Dew Point Humidity Pressure Visibility Wind Dir Wind Speed Gust Speed Precip Events Conditions
12:15 AM 3.2 °F - -7.6 °F 61% 30.48 in 10.0 mi North - - N/A   Clear
12:35 AM 1.4 °F -12.5 °F -11.2 °F 56% 30.48 in 10.0 mi WSW 8.1 mph - N/A   Clear
12:55 AM 1.4 °F -12.5 °F -9.4 °F 61% 30.47 in 10.0 mi SSW 8.1 mph - N/A   Clear
1:15 AM 1.4 °F -13.5 °F -9.4 °F 61% 30.47 in 10.0 mi West 9.2 mph - N/A   Clear
1:35 AM 1.4 °F -12.5 °F -9.4 °F 61% 30.47 in 10.0 mi West 8.1 mph - N/A   Clear
1:55 AM 1.4 °F -11.3 °F -9.4 °F 61% 30.48 in 10.0 mi WNW 6.9 mph - N/A   Clear
2:15 AM 1.4 °F -11.3 °F -9.4 °F 61% 30.47 in 10.0 mi WSW 6.9 mph - N/A   Clear
2:35 AM 1.4 °F -11.3 °F -9.4 °F 61% 30.46 in 10.0 mi WSW 6.9 mph - N/A   Clear
2:55 AM 1.4 °F -9.9 °F -7.6 °F 66% 30.46 in 10.0 mi SW 5.8 mph - N/A   Clear
3:15 AM 1.4 °F -8.3 °F -9.4 °F 61% 30.46 in 10.0 mi North 4.6 mph - N/A   Clear
3:35 AM 1.4 °F - -9.4 °F 61% 30.45 in 10.0 mi North - - N/A   Clear
3:55 AM 1.4 °F -11.3 °F -9.4 °F 61% 30.44 in 10.0 mi NW 6.9 mph - N/A   Clear
4:15 AM 1.4 °F -11.3 °F -7.6 °F 66% 30.44 in 10.0 mi SW 6.9 mph - N/A   Clear
4:35 AM 1.4 °F -12.5 °F -7.6 °F 66% 30.44 in 10.0 mi SW 8.1 mph - N/A   Clear
4:55 AM 1.4 °F -12.5 °F -9.4 °F 61% 30.44 in 10.0 mi SW 8.1 mph - N/A   Clear
5:15 AM 3.2 °F -11.3 °F -7.6 °F 61% 30.43 in 10.0 mi SSW 9.2 mph - N/A   Clear
5:35 AM 3.2 °F -10.3 °F -5.8 °F 66% 30.42 in 10.0 mi South 8.1 mph - N/A   Clear
5:55 AM 3.2 °F -11.3 °F -7.6 °F 61% 30.41 in 10.0 mi SSW 9.2 mph - N/A   Clear
6:15 AM 1.4 °F - -7.6 °F 66% 30.40 in 10.0 mi North - - N/A   Clear
6:35 AM 1.4 °F -8.3 °F -7.6 °F 66% 30.40 in 10.0 mi SSW 4.6 mph - N/A   Clear
6:55 AM 3.2 °F -4.2 °F -5.8 °F 66% 30.39 in 10.0 mi SSW 3.5 mph - N/A   Clear
7:15 AM 1.4 °F -9.9 °F -7.6 °F 66% 30.38 in 10.0 mi SW 5.8 mph - N/A   Clear
7:35 AM 3.2 °F -9.1 °F -5.8 °F 66% 30.37 in 10.0 mi SW 6.9 mph - N/A   Clear
7:55 AM 3.2 °F -10.3 °F -5.8 °F 66% 30.37 in 10.0 mi SSW 8.1 mph - N/A   Clear
8:15 AM 6.8 °F -6.9 °F -2.2 °F 67% 30.37 in 10.0 mi SSW 9.2 mph - N/A   Clear
8:35 AM 6.8 °F -6.9 °F -0.4 °F 72% 30.37 in 10.0 mi SW 9.2 mph - N/A   Clear
8:55 AM 8.6 °F -5.5 °F -0.4 °F 67% 30.36 in 10.0 mi SSW 10.4 mph - N/A   Clear
9:15 AM 10.4 °F -3.3 °F 1.4 °F 67% 30.36 in 10.0 mi SSW 10.4 mph - N/A   Clear
9:35 AM 12.2 °F -0.2 °F 1.4 °F 62% 30.35 in 10.0 mi SSW 9.2 mph - N/A   Clear
9:55 AM 15.8 °F 3.4 °F 1.4 °F 53% 30.34 in 10.0 mi SSW 10.4 mph - N/A   Clear
10:15 AM 17.6 °F 4.3 °F 1.4 °F 49% 30.35 in 10.0 mi SSW 12.7 mph - N/A   Clear
10:35 AM 19.4 °F 4.5 °F 1.4 °F 46% 30.35 in 10.0 mi SW 17.3 mph 20.7 mph N/A   Clear
10:55 AM 19.4 °F 5.0 °F 1.4 °F 46% 30.30 in 10.0 mi SW 16.1 mph - N/A   Clear
11:15 AM 21.2 °F 8.3 °F 1.4 °F 42% 30.30 in 10.0 mi SW 13.8 mph - N/A   Clear
11:35 AM 21.2 °F 6.4 °F 3.2 °F 46% 30.29 in 10.0 mi SSW 18.4 mph 23.0 mph N/A   Clear
11:55 AM 23.0 °F 9.6 °F 3.2 °F 43% 30.28 in 10.0 mi SSW 16.1 mph - N/A   Clear
12:15 PM 24.8 °F 11.1 °F 1.4 °F 36% 30.27 in 10.0 mi SSW 18.4 mph - N/A   Clear
12:35 PM 24.8 °F 10.7 °F 3.2 °F 40% 30.25 in 10.0 mi SSW 19.6 mph - N/A   Clear
12:55 PM 24.8 °F 11.9 °F 1.4 °F 36% 30.23 in 10.0 mi SW 16.1 mph - N/A   Clear
1:15 PM 26.6 °F 14.3 °F 3.2 °F 37% 30.22 in 10.0 mi SSW 16.1 mph - N/A   Clear
1:35 PM - - - N/A% - 10.0 mi North - - N/A   Clear
1:55 PM - - - N/A% - 10.0 mi North - - N/A   Clear
2:15 PM - - - N/A% - 10.0 mi North - - N/A   Clear
2:35 PM - - - N/A% - 10.0 mi North - - N/A   Clear
2:55 PM - - - N/A% - 10.0 mi North - - N/A   Clear
3:15 PM - - - N/A% - 10.0 mi North - - N/A   Clear
3:35 PM - - - N/A% - 10.0 mi North - - N/A   Clear
3:55 PM - - - N/A% - 10.0 mi North - - N/A   Clear
4:15 PM - - - N/A% - 10.0 mi North - - N/A   Clear
4:35 PM - - - N/A% - 10.0 mi North - - N/A   Clear
4:55 PM - - - N/A% - 10.0 mi North - - N/A   Clear
5:15 PM - - - N/A% - 10.0 mi North - - N/A   Clear
5:35 PM - - - N/A% - 10.0 mi North - - N/A   Clear
5:55 PM - - - N/A% - 10.0 mi North - - N/A   Clear
6:15 PM - - - N/A% - 10.0 mi North - - N/A   Clear
6:35 PM - - - N/A% - 10.0 mi North - - N/A   Clear
6:55 PM - - - N/A% - 10.0 mi North - - N/A   Clear
7:15 PM - - - N/A% - 10.0 mi North - - N/A   Clear
7:35 PM - - - N/A% - 10.0 mi North - - N/A   Clear
7:55 PM - - - N/A% - 10.0 mi North - - N/A   Clear
8:15 PM - - - N/A% - 10.0 mi North - - N/A   Clear
8:35 PM - - - N/A% - 10.0 mi North - - N/A   Partly Cloudy
8:55 PM - - - N/A% - 10.0 mi North - - N/A   Mostly Cloudy
9:15 PM - - - N/A% - 10.0 mi North - - N/A   Scattered Clouds
9:35 PM - - - N/A% - 10.0 mi North - - N/A   Mostly Cloudy
9:55 PM - - - N/A% - 10.0 mi North - - N/A   Overcast
10:15 PM - - - N/A% - 10.0 mi North - - N/A   Overcast
10:35 PM - - - N/A% - 10.0 mi North - - N/A   Overcast
10:55 PM - - - N/A% - 10.0 mi North - - N/A   Overcast
11:15 PM - - - N/A% - 10.0 mi North - - N/A   Overcast
11:55 PM - - - N/A% - 10.0 mi North - - N/A   Overcast